Weather History for GMMX - September, 2013

Change the Weather History Date:

Thursday, September 26, 2013

  Actual Average Record
Temperature  
Mean Temperature 72 °F -  
Max Temperature 83 °F 82 °F 98 °F (2007)
Min Temperature 62 °F 59 °F 33 °F (2000)
Cooling Degree Days 8    
Growing Degree Days 22 (Base 50)    
Moisture  
Dew Point 62 °F    
Average Humidity 70    
Maximum Humidity 94    
Minimum Humidity 40    
Precipitation  
Precipitation 0.00 in 0.03 in - ()
Sea Level Pressure  
Sea Level Pressure 30.00 in    
Wind  
Wind Speed 5 mph ()    
Max Wind Speed 12 mph    
Max Gust Speed 16 mph    
Visibility 6.2 miles    
Events      
Averages and records for this station are not official NWS values.
T = Trace of Precipitation, MM = Missing Value Source: Averaged Metar Reports

Daily Weather History Graph

Daily Weather History Graph

Search for Another Location

Airport or City:

Trip Planner

Search our weather history database for the weather conditions in past years. The results will help you decide how hot, cold, wet, or windy it might be!

Date:

Astronomy

Sep. 26, 2013 Rise Set
Actual Time 7:22 AM WEST 7:23 PM WEST
Civil Twilight 6:58 AM WEST 7:47 PM WEST
Nautical Twilight 6:30 AM WEST 8:15 PM WEST
Astronomical Twilight 6:01 AM WEST 8:44 PM WEST
Moon No Moon Rise 1:46 PM WEST (9/26)
Length of Visible Light 12h 49m
Length of Day
12h 00m
Waning Gibbous, 57% of the Moon is Illuminated
Sep 26
Waning Gibbous
Sep 27
Last Quarter
Oct 5
New
Oct 12
First Quarter
Oct 19
Full

Hourly Weather History & Observations

Time (WEST) Temp. Heat Index Dew Point Humidity Pressure Visibility Wind Dir Wind Speed Gust Speed Precip Events Conditions
12:00 AM 71.6 °F - 59.0 °F 64% 30.01 in - Variable 2.3 mph - N/A   Clear
12:30 AM 69.8 °F - 60.8 °F 73% 30.01 in - SW 3.5 mph - N/A   Clear
1:00 AM 68 °F - 59 °F 66% 29.95 in 6 mi SW 6.9 mph - -  
1:00 AM 68.0 °F - 59.0 °F 73% 29.98 in - SW 6.9 mph - N/A   Clear
1:30 AM 68.0 °F - 59.0 °F 73% 29.98 in - SW 8.1 mph - N/A   Clear
2:00 AM 66.2 °F - 59.0 °F 78% 29.98 in - SW 6.9 mph - N/A   Clear
2:30 AM 66.2 °F - 60.8 °F 83% 29.98 in - WSW 4.6 mph - N/A   Clear
3:00 AM 66.2 °F - 59.0 °F 78% 29.98 in - SW 6.9 mph - N/A   Clear
3:30 AM 66.2 °F - 60.8 °F 83% 29.98 in - SW 6.9 mph - N/A   Clear
4:00 AM 65 °F - 61 °F 82% 29.93 in 6 mi SW 5.8 mph - -  
4:00 AM 66.2 °F - 60.8 °F 83% 29.98 in - SW 6.9 mph - N/A   Clear
4:30 AM 64.4 °F - 60.8 °F 88% 29.98 in - WSW 4.6 mph - N/A   Clear
5:00 AM 64.4 °F - 60.8 °F 88% 29.98 in - West 2.3 mph - N/A   Clear
5:30 AM 62.6 °F - 60.8 °F 94% 29.98 in - WSW 3.5 mph - N/A   Clear
6:00 AM 62.6 °F - 60.8 °F 94% 29.98 in - WSW 3.5 mph - N/A   Clear
6:30 AM 64.4 °F - 60.8 °F 88% 30.01 in - SW 4.6 mph - N/A   Clear
6:45 AM 63 °F - 61 °F 89% 29.96 in 6 mi WSW 3.5 mph - -   Clear
7:30 AM 64.4 °F - 62.6 °F 94% 30.01 in - SSW 4.6 mph - N/A   Clear
8:00 AM 64.4 °F - 62.6 °F 94% 29.98 in - SSE 3.5 mph - N/A   Clear
8:30 AM 66.2 °F - 60.8 °F 83% 30.01 in - Variable 2.3 mph - N/A   Clear
9:00 AM 68.0 °F - 62.6 °F 83% 30.01 in - Calm Calm - N/A   Clear
9:30 AM 69.8 °F - 62.6 °F 78% 30.01 in 6.2 mi Variable 1.2 mph - N/A   Partly Cloudy
10:00 AM 71 °F - 62 °F 64% 29.96 in 6 mi WSW 2.3 mph - -   Scattered Clouds
10:00 AM 71.6 °F - 62.6 °F 73% 30.01 in 6.2 mi Variable 2.3 mph - N/A   Partly Cloudy
10:30 AM 71.6 °F - 60.8 °F 69% 30.01 in 6.2 mi NW 3.5 mph - N/A   Partly Cloudy
11:00 AM 73.4 °F - 60.8 °F 65% 30.01 in 6.2 mi WSW 3.5 mph - N/A   Partly Cloudy
11:30 AM 75.2 °F - 62.6 °F 65% 30.01 in 6.2 mi NW 3.5 mph - N/A   Unknown
12:00 PM 75.2 °F - 62.6 °F 65% 30.01 in 6.2 mi WNW 8.1 mph - N/A   Partly Cloudy
12:30 PM 75.2 °F - 62.6 °F 65% 30.01 in 6.2 mi West 9.2 mph - N/A   Partly Cloudy
1:00 PM 77 °F - 64 °F 54% 29.96 in 6 mi West 9.2 mph - -   Scattered Clouds
1:00 PM 77.0 °F - 64.4 °F 65% 30.04 in 6.2 mi Variable 8.1 mph - N/A   Partly Cloudy
1:30 PM 77.0 °F - 62.6 °F 61% 30.04 in 6.2 mi WNW 9.2 mph - N/A   Partly Cloudy
2:00 PM 77.0 °F - 64.4 °F 65% 30.01 in 6.2 mi West 9.2 mph - N/A   Partly Cloudy
2:30 PM 78.8 °F - 64.4 °F 61% 30.01 in 6.2 mi West 6.9 mph - N/A   Scattered Clouds
3:00 PM 78.8 °F - 64.4 °F 61% 29.98 in 6.2 mi WNW 3.5 mph - N/A   Scattered Clouds
3:30 PM 80.6 °F 81.8 °F 62.6 °F 54% 29.98 in 6.2 mi SW 4.6 mph - N/A   Scattered Clouds
4:00 PM 82.4 °F 83.4 °F 62.6 °F 51% 29.98 in 6.2 mi Variable 3.5 mph - N/A   Scattered Clouds
4:30 PM 82.4 °F 83.4 °F 62.6 °F 51% 29.98 in 6.2 mi Variable 4.6 mph - N/A   Scattered Clouds
5:00 PM 82.4 °F 83.4 °F 62.6 °F 51% 29.98 in 6.2 mi West 5.8 mph - N/A   Scattered Clouds
5:30 PM 84.2 °F 84.4 °F 60.8 °F 45% 29.98 in 6.2 mi West 5.8 mph - N/A   Scattered Clouds
6:00 PM 84.2 °F 85.0 °F 62.6 °F 48% 29.98 in 6.2 mi Variable 5.8 mph - N/A   Scattered Clouds
6:30 PM 82.4 °F 83.4 °F 62.6 °F 51% 29.98 in 6.2 mi WSW 5.8 mph - N/A   Scattered Clouds
7:00 PM 82 °F - 62 °F 40% 29.90 in 6 mi West 8.1 mph - -   Scattered Clouds
7:00 PM 82.4 °F 82.9 °F 60.8 °F 48% 29.98 in 6.2 mi West 5.8 mph - N/A   Scattered Clouds
7:30 PM 80.6 °F 81.8 °F 62.6 °F 54% 30.01 in 6.2 mi WSW 4.6 mph - N/A   Scattered Clouds
8:00 PM 78.8 °F - 62.6 °F 57% 30.01 in 6.2 mi West 4.6 mph 16.1 mph N/A   Scattered Clouds
8:30 PM 77.0 °F - 64.4 °F 65% 30.01 in 6.2 mi WNW 8.1 mph - N/A   Scattered Clouds
9:00 PM 75.2 °F - 64.4 °F 69% 30.04 in 6.2 mi West 11.5 mph - N/A   Scattered Clouds
9:30 PM 73.4 °F - 64.4 °F 73% 30.04 in 6.2 mi West 8.1 mph - N/A   Scattered Clouds
10:00 PM 72 °F - 64 °F 71% 30.00 in 6 mi WNW 9.2 mph - -   Scattered Clouds
10:00 PM 73.4 °F - 64.4 °F 73% 30.06 in 6.2 mi WNW 9.2 mph - N/A   Scattered Clouds
10:30 PM 71.6 °F - 64.4 °F 78% 30.06 in 6.2 mi West 9.2 mph - N/A   Scattered Clouds
11:00 PM 71.6 °F - 64.4 °F 78% 30.06 in 6.2 mi West 4.6 mph - N/A   Scattered Clouds
11:30 PM 69.8 °F - 64.4 °F 83% 30.06 in - WSW 4.6 mph - N/A   Clear